Regional Weather Roundup
Issued by NWS

Home | Current Version | Previous Version | Graphics & Text | Print | Product List | Glossary On
Versions: 1 2 3 4 5 6 7 8 9 10 11 12 13 14 15 16 17 18 19 20 21 22 23 24 25 26 27 28 29 30 31 32 33 34 35 36 37 38 39 40 41 42 43 44 45 46 47 48 49 50
000
ASUS45 KABQ 211601
RWRNM
NEW MEXICO REGIONAL WEATHER ROUNDUP
NATIONAL WEATHER SERVICE ALBUQUERQUE NM
1000 AM MDT MON AUG 21 2017

NOTE: "FAIR" MEANS FEW OR NO CLOUDS BELOW 12,000 FEET AGL WITH NO
       SIGNIFICANT WEATHER OR OBSTRUCTIONS TO VISION.

      THIS PRODUCT IS RELEASED AS TWO VERSIONS.  ONE VERSION NEAR
      THE TOP OF THE HOUR CONTAINING PRELIMINARY DATA FROM ALBUQUERQUE
      AND OTHER STATIONS.  A FINAL VERSION WITH ADDITIONAL DATA IS
      ISSUED ABOUT 10 MINUTES AFTER THE HOUR.

NMZ501-503-504-510>518-211700-
NORTHWEST PLATEAU/NORTHCENTRAL MOUNTAINS

CITY           SKY/WX    TMP DP  RH WIND       PRES   REMARKS
FARMINGTON     CLOUDY    69  53  56 CALM      30.23S
LOS ALAMOS     CLOUDY    59  55  85 CALM      30.35R
SANTA FE       CLOUDY    62  57  83 CALM      30.29R
TAOS           FAIR      64  52  64 W7        30.35S
ANGEL FIRE     FAIR      58  49  70 CALM      30.40S

$$
NMZ402-403-502-505>509-211700-
WESTCENTRAL MOUNTAINS/SOUTHWEST MOUNTAINS

CITY           SKY/WX    TMP DP  RH WIND       PRES   REMARKS
GALLUP         PTSUNNY   64  53  67 CALM      30.30S
GRANTS         CLOUDY    66  52  60 CALM      30.31S
SILVER CITY    FAIR      71  57  61 CALM      30.25S

$$
NMZ407-409-411-412-211700-
SOUTHERN DESERTS

CITY           SKY/WX    TMP DP  RH WIND       PRES   REMARKS
DEMING         FAIR      74  64  71 CALM      30.18S
LAS CRUCES     PTSUNNY   74  65  73 SE7       30.20S
HOLLOMAN AFB   FAIR      76  67  71 S9        30.20R
ALAMOGORDO     FAIR      73  63  68 S9        30.20R
T OR C         PTSUNNY   74  61  63 VRB3      30.20S

$$
NMZ519>523-211700-
CENTRAL VALLEYS/CENTRAL HIGHLANDS

CITY           SKY/WX    TMP DP  RH WIND       PRES   REMARKS
ALBUQUERQUE    PTSUNNY   64  59  83 SW6       30.26R
DOUBLE EAGLE   CLOUDY    63  57  82 CALM      30.28R
CLINES CORNERS PTSUNNY   62  55  77 W7        30.33S
BELEN          NOT AVBL
SOCORRO        NOT AVBL

$$
NMZ524>526-539-540-211700-
SOUTHCENTRAL MOUNTAINS

CITY           SKY/WX    TMP DP  RH WIND       PRES   REMARKS
RUIDOSO        NOT AVBL

$$
NMZ527>531-211700-
NORTHEAST HIGHLANDS/NORTHEAST PLAINS

CITY           SKY/WX    TMP DP  RH WIND       PRES   REMARKS
LAS VEGAS      FAIR      64  54  69 SW9       30.31S
RATON          FAIR      67  56  67 S7        30.25R
CLAYTON        FAIR      70  61  73 SW25G31   30.18R

$$
NMZ532>537-211700-
EASTCENTRAL PLAINS

CITY           SKY/WX    TMP DP  RH WIND       PRES   REMARKS
SANTA ROSA     CLOUDY    66  65  97 SW5       30.21R
TUCUMCARI      PTSUNNY   73  66  78 W10       30.14S
CANNON AFB     CLOUDY    71  71 100 S7        30.20R
CLOVIS AIRPORT FAIR      70  65  84 S9        30.21R

$$
NMZ028-029-538-211700-
SOUTHEAST PLAINS

CITY           SKY/WX    TMP DP  RH WIND       PRES   REMARKS
ROSWELL        CLOUDY    76  67  73 SE10      30.15R
ARTESIA        FAIR      73  72  94 SE13      30.16R
CARLSBAD       FAIR      73  71  93 SE10      30.14R
HOBBS          SUNNY     75  64  69 SE10      30.18R


$$




USA.gov is the U.S. government's official web portal to all federal, state and local government web resources and services.